DateTimeUTC,F1_A11,F1_S11,BsB_S11,BsG_S11,BsR_S11,BbsB_S11,BbsG_S11,BbsR_S11,BaB_A11,BaG_A11,BaR_A11,Tu_S11,T_S11,Uu_S11,U_S11,P_S11,T1_A11
2021-05-30T14:00:00Z,00000200,20000000,,,,,,,-000.01,0000.18,0000.12,19.1,25.5,05.8,03.9,0660.8,31.1
2021-05-30T14:01:00Z,00000200,20000000,,,,,,,0000.00,-000.09,-000.03,19.1,25.5,05.8,03.9,0660.8,31.1
2021-05-30T14:02:00Z,00000200,20000000,,,,,,,-000.02,0000.09,-000.03,19.1,25.5,05.8,03.9,0660.8,31.1
2021-05-30T14:03:00Z,00000200,60000000,,,,,,,0000.63,0000.40,0000.27,19.1,25.5,05.8,03.9,0660.8,31.1
2021-05-30T14:04:00Z,00000200,40000000,0001.03,0001.07,0000.45,-000.26,-000.06,-000.04,0000.27,0000.17,0000.26,19.3,25.4,05.8,04.0,0661.6,31.1
2021-05-30T14:05:00Z,00000200,00000000,0001.43,0000.93,0000.67,0000.39,0000.02,-000.04,0000.15,0000.49,0000.37,19.3,25.4,05.9,04.1,0661.7,31.1
2021-05-30T14:06:00Z,00000200,00000000,0001.31,0001.12,0000.86,0000.73,0000.24,-000.10,0000.27,0000.21,0000.15,19.3,25.4,05.9,04.1,0661.7,31.1
2021-05-30T14:07:00Z,00000200,00000000,0001.74,0000.89,0000.80,-000.37,0000.27,0000.26,0000.82,0000.30,0000.42,19.3,25.4,05.9,04.1,0661.7,31.1
2021-05-30T14:08:00Z,00000200,00000000,0001.51,0001.02,0000.86,0000.48,0000.20,0000.14,-000.12,0000.56,0000.03,19.3,25.3,05.9,04.1,0661.7,31.1
2021-05-30T14:09:00Z,00000200,00000000,0001.25,0001.05,0000.63,0000.25,0000.17,-000.14,0000.35,0000.10,-000.25,19.3,25.3,05.9,04.1,0661.6,31.1
2021-05-30T14:10:00Z,00000200,00000000,0000.72,0000.70,0000.60,0000.41,0000.03,-000.04,0000.70,0000.50,0000.80,19.4,25.3,05.9,04.1,0661.6,31.1
2021-05-30T14:11:00Z,00000200,00000000,0001.74,0001.18,0000.76,0000.35,0000.06,0000.01,0000.19,0000.04,0000.26,19.4,25.3,06.0,04.2,0661.6,31.1
2021-05-30T14:12:00Z,00000200,00000000,0001.33,0001.04,0000.74,-000.81,0000.27,-000.06,0000.50,0000.64,0000.13,19.4,25.3,06.0,04.2,0661.6,31.1
2021-05-30T14:13:00Z,00000200,00000000,0001.73,0001.04,0000.57,0000.08,-000.16,-000.04,0000.24,0000.23,0000.19,19.4,25.3,05.9,04.1,0661.6,31.1
2021-05-30T14:14:00Z,00000200,00000000,0001.49,0000.77,0000.63,0000.24,0000.10,0000.04,0000.43,0000.32,0000.25,19.4,25.4,05.9,04.1,0661.6,31.1
2021-05-30T14:15:00Z,00000200,00000000,0001.44,0001.16,0000.57,0000.45,0000.23,-000.10,0000.47,0000.40,0000.21,19.4,25.4,05.9,04.1,0661.6,31.1
2021-05-30T14:16:00Z,00000200,00000000,0001.49,0001.07,0000.88,0000.34,0000.02,0000.23,0000.27,0000.20,0000.47,19.4,25.3,06.1,04.2,0661.6,31.1
2021-05-30T14:17:00Z,00000200,00000000,0001.23,0001.27,0000.86,0000.32,0000.30,0000.51,0000.27,0000.42,0000.23,19.4,25.4,06.0,04.2,0661.6,31.1
2021-05-30T14:18:00Z,00000200,00000000,0001.39,0000.81,0000.75,-000.05,0000.08,0000.16,0000.75,0000.88,0000.54,19.4,25.4,06.1,04.2,0661.6,31.1
2021-05-30T14:19:00Z,00000200,00000000,0001.32,0001.14,0000.45,0000.04,0000.29,0000.40,-000.16,-000.31,0000.03,19.4,25.4,06.1,04.3,0661.6,31.1
2021-05-30T14:20:00Z,00000200,00000000,0001.47,0000.97,0000.74,0000.16,0000.19,0000.28,0000.23,0000.23,0000.19,19.4,25.4,06.0,04.2,0661.6,31.1
2021-05-30T14:21:00Z,00000200,00000000,0001.56,0000.80,0000.78,0000.09,0000.13,0000.05,0000.44,0000.05,0000.07,19.4,25.4,05.9,04.2,0661.5,31.1
2021-05-30T14:22:00Z,00000200,00000000,0001.47,0001.09,0000.97,0000.41,0000.44,0000.33,0000.43,0000.37,0000.41,19.5,25.4,06.0,04.2,0661.5,31.1
2021-05-30T14:23:00Z,00000200,00000000,0001.50,0000.67,0000.70,0000.20,0000.11,0000.03,0000.43,0000.28,0000.12,19.5,25.4,06.0,04.2,0661.5,31.1
2021-05-30T14:24:00Z,00000200,00000000,0001.46,0000.98,0000.86,-000.08,0000.12,0000.18,0000.09,0000.46,0000.49,19.5,25.4,06.0,04.2,0661.5,31.1
2021-05-30T14:25:00Z,00000200,00000000,0001.73,0001.11,0000.81,0000.22,0000.14,0000.02,0000.68,0000.51,0000.18,19.5,25.4,06.0,04.2,0661.5,31.1
2021-05-30T14:26:00Z,00000200,00000000,0001.19,0000.76,0000.63,-000.14,0000.17,0000.10,0000.06,0000.29,0000.16,19.5,25.4,06.1,04.3,0661.5,31.1
2021-05-30T14:27:00Z,00000200,00000000,0001.48,0001.04,0000.81,-000.20,-000.06,0000.38,0000.52,0000.29,0000.49,19.5,25.4,06.0,04.2,0661.5,31.1
2021-05-30T14:28:00Z,00000200,00000000,0001.51,0001.13,0000.54,-000.04,0000.15,-000.12,0000.53,0000.47,-000.22,19.5,25.4,06.0,04.2,0661.5,31.1
2021-05-30T14:29:00Z,00000200,00000000,0001.13,0001.08,0000.48,0000.52,0000.40,0000.16,0000.23,0000.26,0000.50,19.6,25.4,06.0,04.2,0661.5,31.1
2021-05-30T14:30:00Z,00000200,00000000,0001.31,0000.90,0000.78,0000.25,0000.35,-000.11,0000.34,0000.55,0000.55,19.6,25.4,06.2,04.3,0661.4,31.1
2021-05-30T14:31:00Z,00000200,00000000,0001.44,0000.99,0000.84,0000.09,-000.12,0000.08,0000.10,-000.19,0000.29,19.6,25.4,06.2,04.3,0661.4,31.1
2021-05-30T14:32:00Z,00000200,00000000,0001.42,0001.07,0000.59,-000.33,0000.23,0000.09,0000.46,0000.39,-000.17,19.6,25.4,06.0,04.2,0661.4,31.1
2021-05-30T14:33:00Z,00000200,00000000,0001.72,0001.07,0000.66,0000.39,0000.28,0000.08,0000.34,0000.43,0000.14,19.6,25.4,06.1,04.2,0661.4,31.1
2021-05-30T14:34:00Z,00000200,00000000,0001.34,0001.04,0000.75,0000.38,0000.03,0000.19,0000.34,0000.44,0000.65,19.6,25.4,06.2,04.3,0661.4,31.1
2021-05-30T14:35:00Z,00000200,00000000,0001.12,0000.90,0000.57,0000.29,0000.17,-000.04,0000.54,-000.08,0000.09,19.6,25.5,06.1,04.3,0661.4,31.1
2021-05-30T14:36:00Z,00000200,00000000,0001.21,0001.10,0000.54,0000.28,0000.20,-000.10,0000.41,0000.60,0000.13,19.6,25.5,06.1,04.3,0661.4,31.1
2021-05-30T14:37:00Z,00000200,00000000,0001.80,0000.91,0000.56,0000.09,-000.12,0000.05,0000.56,0000.47,0000.58,19.6,25.5,06.0,04.2,0661.4,31.1
2021-05-30T14:38:00Z,00000200,00000000,0001.49,0001.16,0000.77,-000.02,0000.14,0000.04,0000.23,0000.19,-000.08,19.7,25.5,06.1,04.3,0661.4,31.1
2021-05-30T14:39:00Z,00000200,00000000,0001.59,0000.99,0000.67,-000.15,0000.22,-000.02,0000.26,0000.58,0000.38,19.7,25.5,06.2,04.3,0661.4,31.1
2021-05-30T14:40:00Z,00000200,00000000,0001.92,0000.85,0000.88,-000.09,-000.15,0000.10,0000.33,0000.52,0000.33,19.7,25.5,06.3,04.4,0661.4,31.1
2021-05-30T14:41:00Z,00000200,00000000,0002.08,0001.24,0000.81,0000.02,0000.01,0000.12,0000.56,0000.26,0000.30,19.7,25.5,06.2,04.3,0661.4,31.1
2021-05-30T14:42:00Z,00000200,00000000,0001.84,0001.15,0000.76,0000.17,0000.06,0000.11,0000.04,-000.15,-000.04,19.7,25.5,06.2,04.4,0661.4,31.1
2021-05-30T14:43:00Z,00000200,00000000,0001.66,0001.05,0000.66,0000.03,0000.05,0000.37,0000.33,0000.28,0000.35,19.7,25.5,06.1,04.3,0661.3,31.1
2021-05-30T14:44:00Z,00000200,00000000,0001.11,0001.08,0000.82,-000.27,0000.19,0000.30,0000.35,0000.33,0000.58,19.7,25.5,06.1,04.3,0661.4,31.1
2021-05-30T14:45:00Z,00000200,00000000,0000.68,0001.00,0000.67,0000.04,0000.10,0000.01,0000.21,0000.29,-000.36,19.7,25.5,06.0,04.2,0661.3,31.1
2021-05-30T14:46:00Z,00000200,00000000,0001.04,0001.16,0000.88,0000.13,0000.20,-000.01,-000.22,0000.04,-000.02,19.7,25.5,05.9,04.1,0661.3,31.1
2021-05-30T14:47:00Z,00000200,00000000,0001.77,0000.99,0000.73,-000.01,0000.07,0000.03,0000.95,0000.39,0000.65,19.7,25.5,05.7,04.0,0661.3,31.1
2021-05-30T14:48:00Z,00000200,00000000,0001.96,0001.29,0000.60,0000.04,0000.01,0000.01,-000.38,-000.03,-000.10,19.7,25.5,05.8,04.1,0661.3,31.1
2021-05-30T14:49:00Z,00000200,00000000,0001.56,0001.05,0000.60,-000.26,0000.12,-000.04,0000.62,0000.67,0000.53,19.7,25.5,05.7,04.0,0661.3,31.1
2021-05-30T14:50:00Z,00000200,00000000,0002.11,0000.96,0000.52,0000.50,0000.17,0000.02,0000.59,0000.61,0000.11,19.7,25.5,05.8,04.1,0661.3,31.1
2021-05-30T14:51:00Z,00000200,00000000,0001.48,0001.03,0000.80,-000.12,0000.01,0000.04,0000.46,-000.04,0000.26,19.7,25.6,05.8,04.1,0661.3,31.1
2021-05-30T14:52:00Z,00000200,00000000,0000.88,0000.84,0000.79,-000.26,0000.11,0000.27,0000.37,0000.52,0000.37,19.7,25.6,05.8,04.1,0661.3,31.1
2021-05-30T14:53:00Z,00000200,00000000,0001.11,0001.34,0000.88,-000.06,0000.13,-000.01,-000.02,-000.19,0000.08,19.7,25.6,05.8,04.1,0661.3,31.1
2021-05-30T14:54:00Z,00000200,00000000,0001.24,0001.06,0000.69,0000.11,0000.31,0000.24,0000.43,0000.80,0000.71,19.7,25.5,05.5,03.9,0661.2,31.1
2021-05-30T14:55:00Z,00000200,00000000,0002.36,0001.24,0000.56,0000.42,-000.08,0000.13,0000.25,0000.32,-000.10,19.7,25.6,05.7,04.0,0661.2,31.1
2021-05-30T14:56:00Z,00000200,00000000,0001.48,0000.85,0000.43,0000.36,0000.26,0000.15,0000.21,-000.21,0000.12,19.7,25.6,05.6,04.0,0661.2,31.1
2021-05-30T14:57:00Z,00000200,40000000,,,,,,,0000.38,0000.53,0000.24,19.8,25.5,05.8,04.1,0661.2,31.1
2021-05-30T14:58:00Z,00000200,60000000,,,,,,,-000.04,-000.01,0000.16,19.6,25.7,05.9,04.0,0660.2,31.1
2021-05-30T14:59:00Z,00000200,20000000,,,,,,,-000.05,-000.08,-000.20,19.6,25.8,05.7,03.9,0660.2,31.1
